Weather reports worldwide

Advertisment
Aachen-Orsbach, Germany (10505): temperature & dewpoint: 12.02.2020 11:00:00 - 18.02.2020 11:00:00 (CET)Aachen-Orsbach, Germany (10505): temperature 5cm & temperature -5cm: 12.02.2020 11:00:00 - 18.02.2020 11:00:00 (CET)Aachen-Orsbach, Germany (10505): temperature -20cm & temperature -100cm: 12.02.2020 11:00:00 - 18.02.2020 11:00:00 (CET)Aachen-Orsbach, Germany (10505): wind speed & gusts: 12.02.2020 11:00:00 - 18.02.2020 11:00:00 (CET)Aachen-Orsbach, Germany (10505): wind direction: 12.02.2020 11:00:00 - 18.02.2020 11:00:00 (CET)Aachen-Orsbach, Germany (10505): reduced air pressure: 12.02.2020 11:00:00 - 18.02.2020 11:00:00 (CET)Aachen-Orsbach, Germany (10505): visibility: 12.02.2020 11:00:00 - 18.02.2020 11:00:00 (CET)Aachen-Orsbach, Germany (10505): sunshine duration: 12.02.2020 11:00:00 - 18.02.2020 11:00:00 (CET)Aachen-Orsbach, Germany (10505): precipitation: 12.02.2020 11:00:00 - 18.02.2020 11:00:00 (CET)
Date & Time tt [°C] td [°C] tt 5cm [°C] tt -5cm [°C] tt -20cm [°C] tt -100cm [°C] ff [km/h] ff [kn] fx [km/h] fx [kn] dd ppp [hPa] vv [km] sd [min] rr [mm]
18.02.2020 11:00:00 5,6 1,6 6,1 5,2 5,9 6,9 34 19 50 27 SW 1024,0 45 4 0,0
18.02.2020 10:00:00 5,3 1,5 5,3 4,7 5,9 6,9 35 19 50 27 SW 1023,7 38 11 0,0
18.02.2020 09:00:00 5,0 1,5 5,3 4,2 6,0 6,9 32 17 44 24 SW 1023,5 32 12 0,0
18.02.2020 08:00:00 4,5 1,1 3,6 4,2 6,1 6,9 30 16 47 26 SW 1022,9 33 0 0,0
18.02.2020 07:00:00 5,0 1,0 4,2 4,4 6,2 6,9 32 17 51 28 WSW 1022,3 38 0 0,0
18.02.2020 06:00:00 5,1 1,1 4,1 4,6 6,3 6,8 33 18 51 28 WSW 1021,9 39 0 0,0
18.02.2020 05:00:00 5,2 1,1 4,1 5,0 6,3 6,8 36 20 58 31 WSW 1021,3 48 0 0,0
18.02.2020 04:00:00 5,1 2,3 3,9 5,2 6,4 6,8 29 15 51 28 WSW 1020,9 46 0 0,2
18.02.2020 03:00:00 5,3 2,5 4,2 5,3 6,5 6,8 37 20 58 31 WSW 1020,6 13 0 0,2
18.02.2020 02:00:00 6,2 2,0 5,6 5,4 6,5 6,8 35 19 54 29 WSW 1019,9 49 0 0,0
18.02.2020 01:00:00 6,3 2,3 5,7 5,5 6,6 6,8 36 19 57 31 SW 1019,4 46 0 0,0
18.02.2020 00:00:00 6,1 2,9 5,5 5,7 6,7 6,8 31 17 52 28 SW 1018,7 54 0 0,0
17.02.2020 23:00:00 6,5 2,7 5,8 5,7 6,7 6,8 36 19 55 30 WSW 1017,7 65 0 0,0
17.02.2020 22:00:00 6,5 3,0 5,2 5,8 6,8 6,8 37 20 59 32 WSW 1017,1 17 0 0,0
17.02.2020 21:00:00 6,8 2,4 5,5 5,9 6,9 6,8 43 23 59 32 WSW 1016,3 74 0 0,1
17.02.2020 20:00:00 7,7 1,6 6,6 5,9 7,0 6,8 29 16 44 24 SW 1015,6 63 0 0,0
17.02.2020 19:00:00 7,1 2,4 6,1 6,2 7,0 6,8 30 16 41 22 SW 1014,9 58 0 0,0
17.02.2020 18:00:00 6,5 2,7 5,2 7,0 7,0 6,8 26 14 42 23 SW 1014,6 75 38 0,0
17.02.2020 17:00:00 7,5 2,2 6,7 7,6 6,9 6,8 26 14 52 28 WSW 1014,0 56 33 0,0
17.02.2020 16:00:00 6,8 2,8 5,7 8,1 6,8 6,8 42 23 74 40 WSW 1014,2 71 17 0,8
17.02.2020 15:00:00 9,7 2,6 9,7 8,5 6,7 6,8 38 20 65 35 SW 1012,9 67 37 0,0
17.02.2020 14:00:00 9,0 1,9 8,9 8,2 6,6 6,8 40 21 60 33 SW 1013,5 56 29 0,0
17.02.2020 13:00:00 9,0 3,2 10,3 7,3 6,6 6,8 34 19 61 33 SW 1013,8 53 41 0,0
17.02.2020 12:00:00 7,8 2,9 8,9 6,2 6,7 6,8 29 16 52 28 SSW 1014,2 45 38 0,0
17.02.2020 11:00:00 7,1 2,8 6,7 5,9 6,8 6,8 35 19 50 27 SSW 1014,2 47 17 0,0
17.02.2020 10:00:00 7,1 2,7 6,5 5,7 6,8 6,8 32 18 53 28 SSW 1014,3 56 0 0,0
17.02.2020 09:00:00 6,8 2,7 6,0 5,6 6,9 6,8 31 17 45 25 SSW 1013,8 47 0 0,0
17.02.2020 08:00:00 6,6 2,5 5,7 5,7 7,1 6,8 30 16 43 23 SSW 1013,7 48 0 0,0
17.02.2020 07:00:00 6,4 2,9 5,4 5,9 7,2 6,8 23 12 35 19 SW 1013,7 43 0 0,0
17.02.2020 06:00:00 6,7 2,7 5,7 6,1 7,3 6,7 28 15 50 27 SW 1013,8 44 0 0,0
17.02.2020 05:00:00 7,3 2,3 6,2 6,3 7,4 6,7 33 18 55 30 WSW 1013,0 46 0 0,0
17.02.2020 04:00:00 7,4 2,7 6,3 6,6 7,5 6,7 41 22 58 31 WSW 1012,5 50 0 0,0
17.02.2020 03:00:00 7,2 3,2 6,4 6,8 7,6 6,7 33 18 65 35 SW 1011,8 62 0 0,0
17.02.2020 02:00:00 7,2 3,5 6,5 7,1 7,7 6,7 40 22 57 31 SW 1010,9 63 0 0,0
17.02.2020 01:00:00 7,1 4,2 6,3 7,4 7,8 6,7 39 21 56 31 SW 1009,2 75 0 0,3
17.02.2020 00:00:00 6,7 4,8 5,9 7,7 7,8 6,7 41 22 64 35 WSW 1009,2 10 0 2,3
16.02.2020 23:00:00 7,5 5,5 6,5 8,2 7,8 6,7 39 21 58 32 SW 1008,2 14 0 3,0
16.02.2020 22:00:00 7,7 6,5 7,2 8,7 7,7 6,8 31 17 60 32 WSW 1007,4 8 0 2,9
16.02.2020 21:00:00 7,8 6,7 7,6 9,4 7,7 6,8 36 19 96 52 W 1006,1 8 0 3,6
16.02.2020 20:00:00 15,4 7,5 14,4 9,7 7,6 6,8 58 31 95 51 SW 1000,8 71 0 0,0
16.02.2020 19:00:00 15,7 7,0 14,3 9,7 7,5 6,8 61 33 90 49 SSW 1000,4 75 0 0,0
16.02.2020 18:00:00 15,5 7,0 14,3 9,8 7,4 6,8 64 35 103 56 SSW 1001,2 63 0 0,0
16.02.2020 17:00:00 15,7 7,2 14,5 10,1 7,3 6,8 59 32 99 53 SW 1001,4 63 7 0,0
16.02.2020 16:00:00 15,9 7,6 15,0 10,2 7,1 6,8 62 34 96 52 SSW 1000,7 73 33 0,0
16.02.2020 15:00:00 15,2 8,2 14,7 9,9 7,0 6,8 61 33 91 49 SSW 1001,6 63 1 0,0
16.02.2020 14:00:00 14,4 7,6 14,0 9,7 6,9 6,8 54 29 95 52 SSW 1002,6 75 20 0,0
16.02.2020 13:00:00 14,1 7,0 13,4 9,3 6,8 6,8 55 30 99 53 SSW 1003,6 68 0 0,0
16.02.2020 12:00:00 14,4 6,8 13,8 9,1 6,7 6,8 66 36 96 52 SW 1004,1 69 36 0,0
16.02.2020 11:00:00 13,9 6,0 13,4 8,6 6,6 6,8 65 35 98 53 SSW 1004,0 59 1 0,0
16.02.2020 10:00:00 12,7 6,6 11,8 8,3 6,5 6,8 56 31 102 55 SSW 1004,9 72 0 0,0
16.02.2020 09:00:00 12,7 6,8 11,8 8,2 6,4 6,8 68 37 101 55 SSW 1005,1 58 0 0,0
16.02.2020 08:00:00 11,6 7,8 10,0 8,1 6,3 6,8 64 35 98 53 SSW 1005,9 21 0 0,1
16.02.2020 07:00:00 11,6 8,3 9,8 7,9 6,3 6,8 62 33 83 45 SSW 1006,5 17 0 0,3
16.02.2020 06:00:00 11,2 8,0 9,4 7,7 6,2 6,8 48 26 77 42 SSW 1007,2 26 0 1,2
16.02.2020 05:00:00 11,9 7,2 9,7 7,5 6,1 6,8 52 28 82 44 SSW 1007,8 20 0 0,0
16.02.2020 04:00:00 12,4 6,0 11,3 7,4 6,1 6,8 49 26 79 42 SSW 1008,4 60 0 0,0
16.02.2020 03:00:00 12,4 6,0 11,3 7,2 6,0 6,8 48 26 82 45 SSW 1009,0 55 0 0,0
16.02.2020 02:00:00 12,3 6,0 11,2 7,0 6,0 6,8 44 24 67 36 SSW 1009,4 55 0 0,0
16.02.2020 01:00:00 11,5 5,7 10,5 6,8 6,0 6,8 45 24 76 41 SSW 1010,1 53 0 0,0
16.02.2020 00:00:00 11,0 4,9 10,0 6,5 6,0 6,8 44 24 66 36 SSW 1010,5 45 0 0,0
15.02.2020 23:00:00 10,9 4,2 9,8 6,4 6,0 6,8 45 24 66 36 SSW 1011,5 50 0 0,0
15.02.2020 22:00:00 10,6 3,5 9,2 6,4 6,0 6,8 40 22 64 34 SSW 1012,3 59 0 0,0
15.02.2020 21:00:00 10,4 3,4 9,1 6,4 6,0 6,8 40 22 61 33 S 1012,6 51 0 0,0
15.02.2020 20:00:00 10,0 3,1 8,8 6,5 6,0 6,8 35 19 49 26 S 1014,2 43 0 0,0
15.02.2020 19:00:00 9,6 3,2 8,0 6,7 6,0 6,8 29 15 45 25 S 1014,3 39 0 0,0
15.02.2020 18:00:00 9,7 3,5 8,1 7,4 5,9 6,8 26 14 45 24 SSW 1014,8 36 0 0,0
15.02.2020 17:00:00 10,5 3,6 9,3 8,0 5,7 6,8 27 15 53 28 SSW 1015,2 34 0 0,0
15.02.2020 16:00:00 10,8 4,5 10,4 8,6 5,5 6,8 37 20 50 27 SSW 1016,4 33 52 0,0
15.02.2020 15:00:00 11,4 5,2 11,9 8,5 5,3 6,8 34 19 55 30 SSW 1016,5 39 43 0,0
15.02.2020 14:00:00 11,5 5,1 12,6 8,1 5,1 6,8 35 19 55 30 SSW 1017,0 30 53 0,0
15.02.2020 13:00:00 10,6 4,7 10,9 7,5 4,9 6,8 35 19 60 32 SSW 1017,6 31 52 0,0
15.02.2020 12:00:00 9,9 4,6 10,9 6,5 4,9 6,8 40 21 55 30 SSW 1018,7 26 60 0,0
15.02.2020 11:00:00 9,0 4,4 9,9 5,1 4,8 6,8 29 16 43 23 SSW 1019,4 29 20 0,0
15.02.2020 10:00:00 7,7 3,9 6,9 4,7 4,8 6,8 18 10 37 20 SSW 1020,2 24 0 0,0
15.02.2020 09:00:00 7,2 3,6 6,3 4,4 4,8 6,8 24 13 35 19 SW 1020,5 25 0 0,0
15.02.2020 08:00:00 7,0 3,2 5,8 4,3 4,9 6,8 22 12 32 17 SSW 1020,7 29 0 0,0
15.02.2020 07:00:00 7,1 3,1 6,1 4,2 4,9 6,8 26 14 41 22 SSW 1020,6 32 0 0,0
15.02.2020 06:00:00 6,9 3,1 5,7 4,1 4,9 6,8 16 9 40 21 SSW 1020,9 32 0 0,0
15.02.2020 05:00:00 6,6 2,9 5,5 4,0 5,0 6,8 30 16 45 25 S 1020,9 39 0 0,0
15.02.2020 04:00:00 6,2 2,9 4,8 4,0 5,0 6,8 22 12 32 17 S 1021,7 41 0 0,0
15.02.2020 03:00:00 6,1 2,5 4,6 4,2 5,1 6,8 23 12 34 19 S 1022,6 42 0 0,0
15.02.2020 02:00:00 6,4 2,4 5,0 4,3 5,1 6,8 24 13 35 19 SSW 1022,7 41 0 0,0
15.02.2020 01:00:00 6,3 2,4 5,1 4,5 5,2 6,8 29 16 41 22 SSW 1022,8 44 0 0,0
15.02.2020 00:00:00 6,5 2,7 5,3 4,7 5,2 6,8 30 16 42 23 SSW 1023,0 44 0 0,0
14.02.2020 23:00:00 6,9 3,1 5,6 4,7 5,2 6,8 22 12 31 17 SSW 1023,5 41 0 0,0
14.02.2020 22:00:00 7,2 3,0 5,7 5,0 5,2 6,8 19 11 31 17 SSW 1023,8 37 0 0,0
14.02.2020 21:00:00 7,4 3,0 6,2 5,3 5,2 6,8 22 12 32 17 SSW 1023,9 49 0 0,0
14.02.2020 20:00:00 7,5 3,0 6,7 5,5 5,2 6,8 19 10 27 14 SSW 1024,0 48 0 0,0
14.02.2020 19:00:00 7,4 3,0 6,5 5,7 5,2 6,8 17 9 28 15 SW 1023,7 55 0 0,0
14.02.2020 18:00:00 7,3 2,7 6,5 6,0 5,1 6,8 15 8 32 17 WSW 1023,2 57 0 0,0
14.02.2020 17:00:00 7,4 2,5 6,8 6,4 5,0 6,8 18 10 28 15 SW 1022,4 50 7 0,0
14.02.2020 16:00:00 7,5 2,7 7,8 6,6 4,9 6,8 17 9 32 17 WSW 1022,2 39 6 0,0
14.02.2020 15:00:00 7,1 2,8 7,9 6,3 4,8 6,8 19 10 34 18 WSW 1022,3 31 0 0,0
14.02.2020 14:00:00 6,4 1,9 7,2 5,8 4,7 6,9 26 14 37 20 W 1022,5 40 0 0,0
14.02.2020 13:00:00 6,0 1,4 6,5 5,4 4,6 6,9 25 14 37 20 WSW 1022,1 59 0 0,0
14.02.2020 12:00:00 5,9 2,4 6,4 5,0 4,6 6,9 20 11 35 19 WSW 1021,9 33 0 0,0
14.02.2020 11:00:00 5,6 1,9 5,6 4,5 4,6 6,9 19 11 33 18 WSW 1021,1 48 0 0,0
14.02.2020 10:00:00 4,9 2,5 4,8 4,2 4,6 6,9 24 13 36 19 WSW 1020,2 31 0 0,0
14.02.2020 09:00:00 4,7 2,5 4,3 4,2 4,7 6,9 28 15 36 20 WSW 1019,0 24 0 0,0
14.02.2020 08:00:00 4,6 2,5 4,0 4,3 4,7 6,9 23 13 38 20 W 1017,5 22 0 0,0
14.02.2020 07:00:00 4,6 2,7 4,0 4,3 4,7 6,9 25 13 39 21 W 1016,0 15 0 0,0
14.02.2020 06:00:00 4,7 2,6 4,1 4,4 4,7 6,9 29 16 44 24 W 1014,5 11 0 0,0
14.02.2020 05:00:00 5,1 2,4 4,5 4,5 4,7 6,9 29 15 42 23 W 1012,9 23 0 0,0
14.02.2020 04:00:00 5,4 2,4 4,8 4,7 4,6 6,9 30 16 41 22 W 1011,8 40 0 0,0
14.02.2020 03:00:00 5,6 3,8 5,0 4,8 4,6 6,9 26 14 40 22 WSW 1010,9 19 0 0,0
14.02.2020 02:00:00 5,8 4,1 5,0 4,8 4,6 6,9 27 15 36 20 W 1009,6 20 0 0,0
14.02.2020 01:00:00 6,0 4,4 5,3 4,8 4,6 6,9 28 15 46 25 W 1008,2 16 0 0,0
14.02.2020 00:00:00 6,0 4,5 5,3 4,9 4,5 6,9 29 16 52 28 W 1005,9 13 0 0,3
13.02.2020 23:00:00 6,1 4,7 5,4 4,9 4,5 6,9 37 20 51 28 W 1003,9 20 0 0,2
13.02.2020 22:00:00 5,8 5,0 5,5 4,8 4,5 6,9 25 13 36 19 W 1001,7 4,8 0 0,2
13.02.2020 21:00:00 5,9 4,4 5,2 4,8 4,4 6,9 19 10 27 14 SSW 999,5 38 0 0,2
13.02.2020 20:00:00 5,9 4,3 5,1 4,8 4,4 6,9 16 8 24 13 SSW 998,7 29 0 1,2
13.02.2020 19:00:00 5,8 4,2 5,0 4,9 4,3 6,9 19 10 33 18 WSW 998,4 12 0 3,8
13.02.2020 18:00:00 5,5 4,2 5,0 5,1 4,1 6,9 13 7 48 26 NW 997,9 8 0 2,6
13.02.2020 17:00:00 7,1 3,0 6,4 5,4 4,0 7,0 27 15 46 25 SSW 997,5 32 0 0,0
13.02.2020 16:00:00 7,4 2,9 7,1 5,6 3,8 7,0 37 20 50 27 SSW 997,6 41 17 0,0
13.02.2020 15:00:00 7,1 2,9 8,0 5,2 3,7 7,0 33 18 58 32 SSW 998,0 57 60 0,0
13.02.2020 14:00:00 5,7 2,4 7,0 4,1 3,6 7,0 34 18 60 33 SSW 999,0 75 37 0,0
13.02.2020 13:00:00 3,8 1,6 3,4 3,4 3,6 7,0 37 20 64 34 S 1000,0 54 0 1,9
13.02.2020 12:00:00 4,4 1,7 3,5 3,3 3,5 7,0 46 25 74 40 SSW 1001,2 8 0 1,0
13.02.2020 11:00:00 5,2 0,3 3,3 3,0 3,5 7,0 44 24 75 41 S 1000,6 14 0 0,0
13.02.2020 10:00:00 5,3 0,4 3,5 2,7 3,4 7,0 41 22 58 32 S 1002,8 37 0 0,0
13.02.2020 09:00:00 5,3 0,3 4,4 2,4 3,4 7,0 29 16 49 26 S 1005,8 58 0 0,0
13.02.2020 08:00:00 4,7 0,6 3,8 2,2 3,5 7,0 28 15 43 23 S 1007,5 57 0 0,0
13.02.2020 07:00:00 4,3 0,4 3,5 1,9 3,5 7,0 32 17 50 27 S 1009,8 49 0 0,0
13.02.2020 06:00:00 3,8 0,2 2,7 1,6 3,6 7,0 24 13 42 23 S 1012,0 56 0 0,0
13.02.2020 05:00:00 3,6 -0,1 2,3 1,5 3,6 7,0 27 15 42 23 S 1013,1 52 0 0,0
13.02.2020 04:00:00 3,1 -0,5 1,6 1,4 3,7 7,0 23 12 35 19 S 1014,2 49 0 0,0
13.02.2020 03:00:00 3,0 -1,0 1,4 1,5 3,8 7,0 24 13 36 19 S 1015,4 56 0 0,0
13.02.2020 02:00:00 3,0 -0,8 1,3 1,7 3,9 7,0 22 12 32 18 SSW 1016,2 51 0 0,0
13.02.2020 01:00:00 3,4 -0,3 1,9 1,9 3,9 7,0 22 12 36 19 SSW 1017,2 47 0 0,0
13.02.2020 00:00:00 3,3 0,0 2,0 1,9 4,0 7,0 25 13 37 20 SW 1017,8 46 0 0,0
12.02.2020 23:00:00 3,1 -0,8 1,7 1,9 4,1 7,0 25 13 37 20 SW 1017,9 43 0 0,0
12.02.2020 22:00:00 3,0 -1,0 1,5 2,1 4,2 7,0 26 14 32 17 SW 1018,0 40 0 0,0
12.02.2020 21:00:00 3,0 -0,8 1,2 2,4 4,3 7,0 19 11 27 15 SW 1018,2 48 0 0,0
12.02.2020 20:00:00 3,1 -0,4 1,4 2,9 4,3 7,0 16 9 32 17 SW 1018,2 44 0 0,0
12.02.2020 19:00:00 3,7 -0,2 1,5 3,3 4,3 7,0 18 10 35 19 WSW 1017,9 54 0 0,0
12.02.2020 18:00:00 3,9 0,3 2,0 3,9 4,3 7,0 23 12 41 22 SW 1017,1 49 8 0,0
12.02.2020 17:00:00 4,4 0,7 3,2 4,1 4,2 7,0 20 11 31 17 SW 1016,3 54 26 0,0
12.02.2020 16:00:00 2,0 0,5 1,8 4,5 4,1 7,0 23 13 56 30 WSW 1016,4 70 4 0,7
12.02.2020 15:00:00 4,6 0,0 4,0 5,1 4,0 7,0 29 16 56 31 WSW 1015,9 24 21 0,0
12.02.2020 14:00:00 5,6 -1,1 6,8 4,7 3,9 7,0 40 22 61 33 WSW 1015,7 52 28 0,0
12.02.2020 13:00:00 4,7 -0,7 5,1 4,2 3,8 7,0 41 22 57 31 WSW 1015,7 53 15 0,0
12.02.2020 12:00:00 4,9 -0,4 6,5 3,7 3,8 7,0 38 21 63 34 WSW 1015,6 40 28 0,0
12.02.2020 11:00:00 4,4 -0,5 5,4 2,9 3,8 7,0 45 24 63 34 WSW 1014,9 50 34 0,0

tt = temperature
td = dewpoint
tt 5cm = temperature 5cm
tt -5cm = temperature -5cm
tt -20cm = temperature -20cm
tt -100cm = temperature -100cm
ff = wind speed
fx = gusts
dd = wind direction
ppp = reduced air pressure
vv = visibility
sd = sunshine duration
rr = precipitation

Next stations